{"data":{"norad_id":54054,"epoch":"2026-05-25T00:11:38.187168Z","epoch_age_seconds":74363,"freshness":"FRESH","line1":"1 54054U 22136D   26145.00808087  .00000401  00000+0  43275-4 0  9990","line2":"2 54054  53.2171   1.6415 0001523  96.1437 263.9729 15.08841052198366","mean_motion":15.08841052,"eccentricity":0.0001523,"inclination_deg":53.2171,"raan_deg":1.6415,"arg_perigee_deg":96.1437,"mean_anomaly_deg":263.9729,"bstar":4.3275e-5,"rev_number":19836,"period_min":95.437488136424,"perigee_km":538.68658072932,"apogee_km":540.79376611634,"semimajor_km":6917.8771734228,"source":"CELESTRAK","updated_at":"2026-05-25T13:38:17.645750Z"}}